Regional Weather Roundup
Issued by NWS Sioux Falls, SD

Home | Current Version | Previous Version | Graphics & Text | Print | Product List | Glossary On
Versions: 1 2 3 4 5 6 7 8 9 10 11 12 13 14 15 16 17 18 19 20 21 22 23 24 25 26 27 28 29 30 31 32 33 34 35 36 37 38 39 40 41 42 43 44 45 46 47 48 49 50
000
ASUS43 KFSD 080410
RWRFSD

WEATHER ROUNDUP FOR SE SOUTH DAKOTA/SW MINNESOTA/NW IOWA
NATIONAL WEATHER SERVICE SIOUX FALLS SD
1100 PM CDT TUE JUL 07 2015

NOTE: "FAIR" INDICATES FEW OR NO CLOUDS BELOW 12,000 FEET WITH NO
SIGNIFICANT WEATHER AND OR OBSTRUCTIONS TO VISIBILITY.


SDZ038>040-050-052>070-080500-
SOUTHEAST SOUTH DAKOTA

CITY           SKY/WX    TMP DP  RH WIND       PRES   REMARKS
BROOKINGS      FAIR      57  50  77 SE8       30.13S
CHAMBERLAIN    CLEAR     60  54  82 SE9       30.08R
HURON          PTCLDY    60  51  72 SE8       30.08S
MADISON        FAIR      57  54  88 SE7       30.12S
MITCHELL       PTCLDY    61  55  81 S6        30.10S
SIOUX FALLS    PTCLDY    60  50  69 SE8       30.11S
WINNER         FAIR      63  54  72 SE10      30.07R
YANKTON        PTCLDY    57  52  82 CALM      30.10S
$$

MNZ071-072-080-081-089-090-097-098-080500-
SOUTHWEST MINNESOTA

CITY           SKY/WX    TMP DP  RH WIND       PRES   REMARKS
FAIRMONT       CLEAR     57  48  72 CALM      30.13S
JACKSON        CLEAR     55  52  88 SE3       30.14S
LUVERNE        PTCLDY    59  54  82 E3        30.13R
MARSHALL       MOCLDY    59  48  67 S7        30.12R
MONTEVIDEO     MOCLDY    57  50  77 CALM      30.13S
PIPESTONE      PTCLDY    57  52  82 CALM      30.13S
REDWOOD FALLS  PTCLDY    59  52  77 S3        30.12R
TRACY          PTCLDY    59  51  74 S3        30.13S
WINDOM         PTCLDY    57  50  77 CALM      30.13S
WORTHINGTON    CLEAR     55  46  71 E6        30.14R
$$

IAZ001>003-012>014-020>022-031-032-NEZ013-014-SDZ071-080500-
NORTHWEST IOWA

CITY           SKY/WX    TMP DP  RH WIND       PRES   REMARKS
CHEROKEE       PTCLDY    56  53  89 E7        30.13R
DENISON        MOCLDY    57  55  94 CALM      30.10S
ESTHERVILLE    PTCLDY    56  50  80 E5        30.13S
LE MARS          N/A     61  54  77 SE6G12    30.12S
ORANGE CITY    CLEAR     57  52  82 E3        30.12S
SHELDON        CLEAR     55  55 100 E6        30.11S
SIOUX CITY     PTCLDY    62  51  67 E6        30.11R
SPENCER        PTCLDY    56  50  80 CALM      30.13R
STORM LAKE     PTCLDY    55  52  88 E6        30.13S
$$

ABBREVIATIONS USED IN REMARKS
   TC - TEMPERATURE IN CELSIUS
  WCI - WIND CHILL INDEX
   HX - HEAT INDEX
  VSB - VISIBILITY



USA.gov is the U.S. government's official web portal to all federal, state and local government web resources and services.